Regional Weather Roundup
Issued by NWS

Home | Current Version | Previous Version | Graphics & Text | Print | Product List | Glossary Off
Versions: 1 2 3 4 5 6 7 8 9 10 11 12 13 14 15 16 17 18 19 20 21 22 23 24 25 26 27 28 29 30 31 32 33 34 35 36 37 38 39 40 41 42 43 44 45 46 47 48 49 50

000
ASUS43 KMKX 250600
RWRWI

WISCONSIN REGIONAL WEATHER ROUNDUP
NATIONAL WEATHER SERVICE MILWAUKEE/SULLIVAN WI
1200 AM CST SUN JAN 25 2015

NOTE: "FAIR" INDICATES FEW OR NO CLOUDS BELOW 12,000 FEET WITH NO
SIGNIFICANT WEATHER AND/OR OBSTRUCTIONS TO VISIBILITY.

WIZ001-002-006>008-014>016-023>028-250700-
NORTHWEST WISCONSIN

CITY           SKY/WX    TMP DP  RH WIND       PRES   REMARKS
SUPERIOR ARPT  CLOUDY    24  17  74 E14G25    29.86R WCI  12
ASHLAND        CLOUDY    20  14  77 NE15      29.87R WCI   6
6HR MIN TEMP:  20; 6HR MAX TEMP:  25;

HAYWARD        CLOUDY    21  14  74 NE16G25   29.79R WCI   7
6HR MIN TEMP:  21; 6HR MAX TEMP:  32;

SIREN          CLOUDY    26  19  75 NE14      29.76R WCI  14
CUMBERLAND     MIX PCPN  30  27  86 NE13      29.71R WCI  20
RICE LAKE      CLOUDY    32  27  81 NE15G21   29.72R WCI  21
CHETEK         CLOUDY    31  24  75 N13G20    29.71R WCI  21
LADYSMITH      CLOUDY    28  21  74 NE17G23   29.73R WCI  16
EAU CLAIRE     NOT AVBL
MENOMONIE      CLOUDY    36  31  82 NE6       29.68R WCI  31
NEW RICHMOND   CLOUDY    34  30  85 NE13      29.69R WCI  25
OSCEOLA        CLOUDY    34  30  84 NE12      29.74R WCI  25
$$

WIZ003>005-009-010-017-018-250700-
NORTH CENTRAL WISCONSIN

CITY           SKY/WX    TMP DP  RH WIND       PRES   REMARKS
MANITOWISH WTR CLOUDY    14  10  84 NE8       29.77R WCI   3
ARBOR VITAE    CLOUDY    19  14  81 NE8       29.76R WCI   9
WOODRUFF       CLOUDY    19  14  81 NE8       29.76R WCI   9
RHINELANDER    CLOUDY    18  13  80 NE10      29.75R WCI   6
6HR MIN TEMP:  18; 6HR MAX TEMP:  33;

EAGLE RIVER    CLOUDY    14   8  76 NE13      29.76R WCI   0
LAND O LAKES   CLOUDY    14   9  78 NE7       29.79R WCI   4
PHILLIPS       CLOUDY    22  17  81 NE12G18   29.73R WCI  10
TOMAHAWK       CLOUDY    23  16  76 CALM      29.74R
MEDFORD        CLOUDY    29  25  84 NE12      29.68R WCI  19
MERRILL        CLOUDY    27  21  77 NE14      29.71R WCI  16
$$

WIZ029-030-035-036-043>047-250700-
CENTRAL WISCONSIN

CITY           SKY/WX    TMP DP  RH WIND       PRES   REMARKS
WAUSAU         CLOUDY    30  24  78 E9        29.69R WCI  22
6HR MIN TEMP:  30; 6HR MAX TEMP:  35;

MOSINEE        CLOUDY    30  28  93 E15       29.70R WCI  19
MARSHFIELD     CLOUDY    32  28  85 E21       29.67R WCI  20
6HR MIN TEMP:  32; 6HR MAX TEMP:  34;

STEVENS POINT  CLOUDY    28  24  84 E10       29.70R WCI  18
WAUPACA        CLOUDY    29  23  77 E9G16     29.74R WCI  20
WAUTOMA        NOT AVBL
WISC RAPIDS    CLOUDY    30  26  85 E13       29.70R WCI  20
6HR MIN TEMP:  30; 6HR MAX TEMP:  33; 6HR PCP: TRACE;

CAMP DOUGLAS   NOT AVBL
$$

WIZ011>013-019>022-031-037>040-048>050-250700-
NORTHEAST WISCONSIN

CITY           SKY/WX    TMP DP  RH WIND       PRES   REMARKS
ANTIGO         CLOUDY    23  19  82 NE14      29.72R WCI  11
SHAWANO        CLOUDY    28  21  76 E14       29.77R WCI  17
OCONTO         CLOUDY    21  13  72 NE9       29.80R WCI  11
STURGEON BAY   CLOUDY    21  12  68 NE12G17   29.80S WCI   9
6HR MIN TEMP:  21; 6HR MAX TEMP:  28;

GREEN BAY      CLOUDY    23  16  74 NE23G29   29.78R WCI   7
6HR MIN TEMP:  23; 6HR MAX TEMP:  35; 6HR PCP: TRACE;

MANITOWOC      NOT AVBL
APPLETON       CLOUDY    27  19  74 NE20      29.73R WCI  13
CLINTONVILLE   CLOUDY    28  21  74 E8G16     29.74S WCI  20
OSHKOSH        CLOUDY    28  23  81 E15G22    29.72R WCI  16
6HR MIN TEMP:  28; 6HR MAX TEMP:  35; 6HR PCP: TRACE;

$$

WIZ032>034-041-042-053>061-250700-
SOUTHWEST WISCONSIN

CITY           SKY/WX    TMP DP  RH WIND       PRES   REMARKS
LA CROSSE      CLOUDY    37  30  75 E7        29.64R WCI  32
6HR MIN TEMP:  32; 6HR MAX TEMP:  37;

SPARTA         CLOUDY    32  30  92 CALM      29.66R
VIROQUA        CLOUDY    33  33 100 E8        29.62R WCI  26
BOSCOBEL       CLOUDY    35  30  82 NE5       29.64R WCI  31
6HR MIN TEMP:  32; 6HR MAX TEMP:  38;

PRAIRIE DU CHI CLOUDY    32  31  94 CALM      29.61S
PLATTEVILLE    CLOUDY    34  32  93 E8        29.61S WCI  27
$$

WIZ056-057-062-063-064-067-068-250700-
SOUTH CENTRAL WISCONSIN

CITY           SKY/WX    TMP DP  RH WIND       PRES   REMARKS
REEDSBURG      MOCLDY    31  29  94 CALM      29.64S
BARABOO/DELLS  MOCLDY    31  29  94 E6        29.64S FOG     WCI  25
LONE ROCK      NOT AVBL
MINERAL POINT  CLOUDY    34  32  93 E9        29.61S WCI  26
MADISON        CLOUDY    32  29  88 E5        29.65S WCI  27
6HR MIN TEMP:  28; 6HR MAX TEMP:  33;

MIDDLETON      MOCLDY    32  32  99 E3        29.65S
WATERTOWN      MOCLDY    29  29 100 NE3       29.66S
MONROE         CLOUDY    32  32 100 E7        29.62F FOG     WCI  26
JANESVILLE     MOCLDY    32  32 100 E6        29.65S FOG     WCI  26
$$

WIZ051-052-058>065-066-070>072-250700-
SOUTHEAST WISCONSIN

CITY           SKY/WX    TMP DP  RH WIND       PRES   REMARKS
MILWAUKEE      CLOUDY    34  29  82 NE16G25   29.69R WCI  24
6HR MIN TEMP:  34; 6HR MAX TEMP:  36;

WAUKESHA       CLOUDY    32  30  93 NE10G20   29.68S WCI  24
MILWAUKEE/TIMM CLOUDY    32  28  86 NE13G18   29.69S WCI  22
RACINE         CLOUDY    34  29  82 NW3       29.69S
6HR MIN TEMP:  33; 6HR MAX TEMP:  34;

BURLINGTON     CLEAR     29  28  98 CALM      29.67F FOG
KENOSHA        FAIR      32  29  88 N3        29.67S
6HR MIN TEMP:  29; 6HR MAX TEMP:  33;

FOND DU LAC    CLOUDY    29  23  78 NE13      29.71R WCI  19
6HR MIN TEMP:  29; 6HR MAX TEMP:  35; 6HR PCP: TRACE;

SHEBOYGAN      CLOUDY    27  23  85 NE24      29.73R WCI  12
6HR MIN TEMP:  27; 6HR MAX TEMP:  36; 6HR PCP: TRACE;

WEST BEND      CLOUDY    30  27  86 NE13G23   29.69F WCI  20
JUNEAU         CLOUDY    32  30  93 E13       29.68S WCI  22
$$

LSZ147-162-250700-
LAKE SUPERIOR

STATION/POSITION TIME  TEMP    WIND        PRES    WAVE
                       AIR SEA DIR/SP/G            HT/PER
                 (UTC) (F)     (DEG/KT/KT) (MB)    (FT/S)
DEVILS ISLAND    0500   20      50/ 16/ 17 1013.0R
PORT WING        0520   22      70/ 11/ 23 1011.5R
SAXON HARBOR     0500   20      90/  7/ 16 1010.8R
$$

LMZ867-665-643>646-250700-
LAKE MICHIGAN

STATION/POSITION TIME  TEMP    WIND        PRES    WAVE
                       AIR SEA DIR/SP/G            HT/PER
                 (UTC) (F)     (DEG/KT/KT) (MB)    (FT/S)
NORTHPORT PIER   0502   21     360/ 17/ 21 1009.1R
SISTER BAY       0513   20      10/ 13/ 15   N/A
KEWAUNEE LAKESHO 0500   25      30/ 14/ 18 1007.3R
SHEBOYGAN LAKESH 0500   29      20/ 26/ 28 1007.5R
PORT WASHINGTON  0500   32      40/ 18/ 23 1006.8R
MILWAUKEE LAKESH 0500   35     350/  5/  7   N/A
KENOSHA   LAKESH 0500   33     340/  4/  5 1005.1F
$$

TC  - TEMPERATURE IN CELSIUS
VSB - VISIBILITY IN STATUTE MILES
WCI - WIND CHILL INDEX
HX  - HEAT INDEX



USA.gov is the U.S. government's official web portal to all federal, state and local government web resources and services.